User: anonymous   Login
Location: *
(2.7500°S, 66.6833°W)
Time: 01:00:06
(UTC+00:00)
Language:

Ariane H10+ - Orbit

View from above orbital plane
View from above orbital plane
View from above satellite
View from above satellite

Ground track
Ground track

The orbit data is extracted from the following two-line orbital elements,

1 23127U 94034D   24194.23856960  .00000287  00000-0  14143-2 0  9996
2 23127   7.1024 229.1243 7215883 300.7819   7.7208  2.25933603245655
Epoch (UTC): 12 July 2024 05:43:32
Eccentricity: 0.7215883
inclination: 7.1024°
perigee height: 452 km
apogee height: 35857 km
right ascension of ascending node: 229.1243°
argument of perigee: 300.7819°
revolutions per day: 2.25933603
mean anomaly at epoch: 7.7208°
orbit number at epoch: 24565

The dashed part of the orbit path shows where the satellite is in the earth's shadow,  

DLR